TimeMDT,TemperatureF,Dew PointF,Humidity,Sea Level PressureIn,VisibilityMPH,Wind Direction,Wind SpeedMPH,Gust SpeedMPH,PrecipitationIn,Events,Conditions,WindDirDegrees,DateUTC
12:53 AM,24.1,14.0,65,30.31,10.0,WNW,11.5,-,N/A,,Partly Cloudy,300,2013-04-18 06:53:00
1:53 AM,23.0,15.1,72,30.30,10.0,WNW,13.8,-,N/A,,Partly Cloudy,290,2013-04-18 07:53:00
2:53 AM,24.1,15.1,69,30.30,10.0,WNW,10.4,-,N/A,,Overcast,290,2013-04-18 08:53:00
3:53 AM,21.0,12.9,71,30.30,10.0,NW,4.6,-,N/A,,Clear,310,2013-04-18 09:53:00
4:53 AM,19.9,14.0,78,30.30,10.0,WNW,3.5,-,N/A,,Clear,290,2013-04-18 10:53:00
5:53 AM,15.1,10.0,80,30.31,10.0,ESE,3.5,-,N/A,,Clear,120,2013-04-18 11:53:00
6:53 AM,15.1,9.0,77,30.32,10.0,ESE,3.5,-,N/A,,Clear,120,2013-04-18 12:53:00
7:53 AM,19.0,10.9,71,30.33,10.0,ESE,4.6,-,N/A,,Clear,110,2013-04-18 13:53:00
8:53 AM,25.0,15.1,66,30.32,10.0,ESE,3.5,-,N/A,,Clear,110,2013-04-18 14:53:00
9:53 AM,30.0,16.0,56,30.30,10.0,Calm,Calm,-,N/A,,Clear,0,2013-04-18 15:53:00
10:53 AM,32.0,15.1,50,30.29,10.0,Variable,3.5,-,N/A,,Clear,0,2013-04-18 16:53:00
11:53 AM,36.0,12.9,39,30.26,10.0,Calm,Calm,-,N/A,,Clear,0,2013-04-18 17:53:00
12:53 PM,41.0,12.0,31,30.23,10.0,WNW,6.9,-,N/A,,Clear,290,2013-04-18 18:53:00
1:53 PM,46.0,10.0,23,30.19,10.0,North,15.0,20.7,N/A,,Clear,10,2013-04-18 19:53:00
2:53 PM,46.9,10.9,23,30.17,10.0,North,6.9,-,N/A,,Clear,10,2013-04-18 20:53:00
3:53 PM,48.9,12.0,23,30.15,10.0,NNW,12.7,18.4,N/A,,Scattered Clouds,340,2013-04-18 21:53:00
4:53 PM,50.0,10.0,20,30.14,10.0,NW,16.1,24.2,N/A,,Scattered Clouds,320,2013-04-18 22:53:00
5:53 PM,48.9,14.0,25,30.16,10.0,NW,17.3,24.2,N/A,,Overcast,320,2013-04-18 23:53:00
6:53 PM,48.9,15.1,26,30.17,10.0,NW,16.1,23.0,N/A,,Overcast,320,2013-04-19 00:53:00
7:53 PM,48.0,15.1,27,30.15,10.0,NW,15.0,-,N/A,,Overcast,320,2013-04-19 01:53:00
8:53 PM,46.9,16.0,29,30.15,10.0,NNW,10.4,-,N/A,,Overcast,340,2013-04-19 02:53:00
9:53 PM,45.0,17.1,33,30.14,10.0,North,5.8,-,N/A,,Mostly Cloudy,360,2013-04-19 03:53:00
10:53 PM,39.0,16.0,39,30.14,10.0,WSW,5.8,-,N/A,,Clear,250,2013-04-19 04:53:00
11:53 PM,35.1,15.1,44,30.14,10.0,West,5.8,-,N/A,,Partly Cloudy,280,2013-04-19 05:53:00